Weather in Chkalovskiy

Russia / Republic of Karelia     66°17′53″N   33°23′37″E
temp.,
°C
wind,
m/s
gust,
m/s
humid.,
%
clouds,
%
prec.,
mm/h
press.,
hPa
HPBL,
m
19 january, wed
wed1900:00−7sw51394100 0.1 999435
03:00−5ssw51293100 0.2 995374
06:00−2ssw51394100 0.0 990559
09:00+1sw51299100 0.1 987674
12:00+1sw51298100 0.0 986618
15:00+2sw514100100 0.3 983604
18:00+2sw514100100 0.4 981556
21:00+1ssw51399100 2.0 979568
20 january, thu
thu2000:00+1sw41099100 2.4 978520
03:00+1wsw3899100 3.3 978406
06:000wsw3699100 0.1 978273
09:00−3nnw4897100 1.5 981411
12:00−3n3897100 0.9 983401
15:00−3nnw3797100 2.6 985330
18:00−5wnw129798 1.3 98667
21:00−10w2295100 1.3 98831
21 january, fri
fri2100:00−10wnw2692100 0.0 99090
03:00−11nw2596100 0.0 99393
06:00−12nw2596100 0.0 99585
09:00−11nw269578 0.0 99996
12:00−8nw3895100 0.0 1002175
15:00−8nw3892100 0.0 1006141
18:00−9nw389072 0.0 1009152
21:00−12nw279313 0.0 101393
22 january, sat
sat2200:00−13nw27955 0.0 101788
03:00−16nw229850 0.0 101922
06:00−18nw2210060 0.0 102113
09:00−20wnw1110068 0.0 10229
12:00−20w1110071 0.0 10239
15:00−19wsw119949 0.0 10239
18:00−20sw2210062 0.0 102314
21:00−16ssw249731 0.0 102351
23 january, sun
sun2300:00−14sw389471 0.0 1023109
03:00−11sw41293100 0.0 1023207
06:00−9ssw41390100 0.0 1022298
09:00−8ssw51487100 0.0 1020377
12:00−6ssw51388100 0.0 1020444
15:00−5sw51391100 0.0 1018461
18:00−3sw61592100 0.0 1017554
21:00−2ssw61593100 0.0 1014548